www.pogodaiklimat.ru

Погода и климат >> Архив погоды >> Беларусь >> Бобруйск


АРХИВ ПОГОДЫ в Бобруйске

Время (UTC), дата Ветер
(напр.,м/с)
 
Видим.   Явления Облачность Т
(С)
Тd
(С)
f
(%)
Тe
(С)
Тes
(С)
Комфортность P
(гПа)
Po
(гПа)
Тmin
(С)
Tmax
(С)
R
(мм)
R24
(мм)
S
(см)
00 12.12 В 1 200 м туман ?/? +0.5 +0.5 100 -2 -2 тепло 1015.2 995.7
03 12.12 СВ 2 800 м туман ?/? +0.3 +0.3 100 -4 -4 по сезону 1015.9 996.3
06 12.12 С 2 1100 м дымка {туман} 10/10 120 м
[St]
+0.2 -0.1 98 -4 -4 по сезону 1016.8 997.2 +0.2
09 12.12 СВ 4 9000 м дымка 10/10 240 м
[Sc]
+0.8 +0.3 96 -5 -5 по сезону 1017.4 997.8
12 12.12 СВ 4 10 км 10/10 270 м
[Sc]
+0.8 -0.3 92 -5 -5 по сезону 1016.7 997.2
15 12.12 С 4
{11}
10 км 9/9 540 м
[Sc]
+0.7 -0.4 92 -5 -5 по сезону 1017.1 997.5
18 12.12 С 5
{10}
10 км 9/9 630 м
[Sc]
+0.8 -0.7 90 -5 -5 по сезону 1016.9 997.4 +1.1
21 12.12 С 6
{11}
10 км 10/10 270 м
[Cb calv]
+0.8 -0.4 92 -6 -6 по сезону 1016.8 997.3
00 13.12 СВ 7-10
{11}
10 км {ливн. осадки} 9/9 540 м
[Sc]
+0.4 -1.5 87 -7 -7 по сезону 1016.7 997.2
03 13.12 С 7-10
{12}
10 км в посл. час ливневой снег 10/10 240 м
[Cb calv]
-0.6 -0.9 98 -8 -8 по сезону 1016.8 997.2
06 13.12 С 5
{10}
7000 м слабый ливневой снег 9/8 420 м
[Cb calv Ac und]
-1.0 -1.3 98 -8 -8 по сезону 1017.2 997.5 -1.0 2 2
09 13.12 С 5 6000 м слабый ливневой снег 9/8 400 м
[Cb calv Ac und]
-0.7 -1.6 94 -7 -7 по сезону 1017.6 997.9
12 13.12 С 5 10 км в посл. час ливневой снег 9/8 540 м
[Cb calv Ac und]
-0.3 -1.2 94 -7 -7 по сезону 1017.5 997.8
15 13.12 С 4 10 км в посл. час ливневой снег 10/10 500 м
[Cb calv]
-0.3 -1.2 94 -6 -6 по сезону 1018.3 998.6
18 13.12 СВ 3 6000 м слабый ливневой снег 10/10 270 м
[Cb calv]
-0.4 -1.0 96 -5 -5 по сезону 1019.3 999.6 -0.2 2
21 13.12 СВ 3 7000 м слабый ливневой снег 10/10 240 м
[Cb calv]
-0.2 -0.8 96 -5 -5 по сезону 1020.6 1000.9
00 14.12 В 3 10 км {ливн. осадки} 10/10 210 м
[Sc]
-0.4 -1.0 96 -5 -5 по сезону 1022.0 1002.3
03 14.12 СВ 3 10 км 10/10 210 м
[Sc]
-0.3 -1.2 94 -5 -5 по сезону 1023.0 1003.2
06 14.12 СВ 3 10 км 10/10 210 м
[Sc]
-0.3 -1.2 94 -5 -5 по сезону 1024.1 1004.3 -0.4 0.3 3
09 14.12 СВ 2 7000 м слабый ливневой снег 10/10 270 м
[Cb calv]
-0.2 -0.6 97 -4 -4 по сезону 1025.4 1005.6
12 14.12 СВ 2 6000 м слабый ливневой снег 10/10 240 м
[Cb calv]
-0.2 -0.5 98 -4 -4 по сезону 1026.1 1006.3
15 14.12 СВ 3 10 км в посл. час ливневой снег 10/10 570 м
[Cb calv]
-0.8 -1.4 96 -6 -6 по сезону 1027.1 1007.3
18 14.12 СВ 2 10 км {ливн. осадки} 9/9 500 м
[Sc]
-1.0 -2.3 91 -5 -5 по сезону 1028.6 1008.6 -0.2 0.9
21 14.12 СВ 2 10 км 9/9 480 м
[Sc]
-1.4 -2.2 94 -5 -5 по сезону 1029.3 1009.3
00 15.12 СВ 2 8000 м дымка 10/10 270 м
[Sc]
-1.6 -2.3 95 -6 -6 по сезону 1029.8 1009.8
03 15.12 СВ 2 8000 м дымка 10/10 300 м
[Sc]
-1.6 -2.3 95 -6 -6 по сезону 1030.4 1010.4
06 15.12 В 3 10 км 9/9 500 м
[Sc]
-2.1 -3.8 88 -7 -7 по сезону 1031.6 1011.5 -2.1 4
09 15.12 СВ 2 10 км 10/10 300 м
[Sc]
-1.6 -2.7 92 -6 -6 по сезону 1032.4 1012.3
12 15.12 СВ 2 10 км 10/10 300 м
[Sc]
-1.3 -3.0 88 -5 -5 по сезону 1032.6 1012.5
15 15.12 СВ 2 10 км 10/10 300 м
[Sc]
-1.6 -2.4 94 -6 -6 по сезону 1033.3 1013.2
18 15.12 В 2 10 км 10/10 270 м
[Sc]
-2.0 -3.3 91 -6 -6 по сезону 1033.7 1013.5 -1.0
21 15.12 В 4 10 км 9/9 480 м
[Sc]
-1.9 -3.8 87 -8 -8 по сезону 1033.5 1013.4
00 16.12 В 4 10 км 10/10 270 м
[Sc]
-1.9 -3.5 89 -8 -8 по сезону 1033.2 1013.1
03 16.12 ЮВ 3 10 км 10/10 210 м
[Sc]
-2.8 -3.6 94 -8 -8 по сезону 1033.2 1013.0
06 16.12 ЮВ 4
{10}
8000 м дымка 10/10 210 м
[Sc]
-3.2 -3.6 97 -10 -10 по сезону 1032.9 1012.7 -3.2 4
09 16.12 ЮВ 5-10
{10}
9000 м дымка 10/10 240 м
[Sc]
-2.8 -3.5 95 -10 -10 по сезону 1032.9 1012.7
12 16.12 В 4
{11}
10 км 9/9 500 м
[Sc]
-2.4 -3.7 91 -8 -8 по сезону 1031.7 1011.6
15 16.12 ЮВ 5-11
{10}
10 км 9/9 500 м
[Sc]
-3.2 -4.2 93 -10 -10 по сезону 1031.6 1011.5
18 16.12 ЮВ 4
{11}
8000 м дымка 10/10 240 м
[Sc]
-3.7 -4.4 95 -10 -10 по сезону 1031.3 1011.1 -2.4
21 16.12 ЮВ 3
{10}
8000 м слабый снег 9/9 500 м
[Sc]
-4.0 -4.7 95 -10 -10 по сезону 1031.0 1010.8
00 17.12 ЮВ 3
{10}
7000 м дымка {снег} 10/10 210 м
[Sc]
-4.6 -5.0 97 -10 -10 по сезону 1030.5 1010.3
03 17.12 ЮВ 3 8000 м дымка 10/10 240 м
[Sc]
-4.9 -5.6 95 -11 -11 по сезону 1030.0 1009.7
06 17.12 ЮВ 3 10 км 10/10 240 м
[Sc]
-5.0 -6.0 93 -11 -11 по сезону 1029.8 1009.5 -5.0 0.0 4
09 17.12 ЮВ 3
{10}
9000 м слабый снег 9/9 480 м
[Sc]
-4.8 -6.2 90 -10 -10 по сезону 1029.7 1009.5
12 17.12 ЮВ 3 10 км {снег} 9/9 420 м
[Sc]
-4.2 -6.3 85 -10 -10 по сезону 1028.7 1008.5
15 17.12 ЮВ 3 10 км 9/9 420 м
[Sc]
-4.6 -6.6 86 -10 -10 по сезону 1028.9 1008.7
18 17.12 ЮВ 3 10 км 10/10 270 м
[Sc]
-5.5 -7.2 88 -11 -11 по сезону 1029.8 1009.5 -4.0 0.0
21 17.12 ЮВ 2 10 км 10/10 270 м
[Sc]
-6.0 -7.4 90 -10 -10 по сезону 1030.8 1010.4
00 18.12 Ю 2 10 км 10/10 240 м
[Sc]
-6.1 -7.3 91 -11 -11 по сезону 1031.0 1010.6
03 18.12 ЮВ 2 10 км 10/10 240 м
[Sc]
-6.1 -7.2 92 -11 -11 по сезону 1030.9 1010.5
06 18.12 ЮВ 2 10 км 10/10 210 м
[Sc]
-6.3 -7.1 94 -11 -11 по сезону 1031.4 1011.0 -6.3 3
09 18.12 ЮВ 1 8000 м дымка 10/10 210 м
[Sc]
-6.2 -6.9 95 -9 -9 по сезону 1032.4 1012.0
12 18.12 ЮВ 2 8000 м дымка {снег} 10/10 210 м
[Sc]
-6.2 -6.7 96 -11 -11 прохладно 1032.0 1011.6
15 18.12 штиль 0 9000 м дымка 10/10 210 м
[Sc]
-6.1 -6.6 96 -7 -7 по сезону 1032.7 1012.3
18 18.12 В 1 10 км 9/9 420 м
[Sc]
-6.1 -7.2 92 -9 -9 по сезону 1033.2 1012.7 -6.0 0.0
21 18.12 ЮВ 1 10 км 9/9 450 м
[Sc]
-6.2 -8.0 87 -9 -9 по сезону 1034.0 1013.5

 

Местоположение метеостанции Бобруйск (Могилевская область, Беларусь): широта 53.21 долгота 29.13 высота над уровнем моря 156 м.

В архиве по умолчанию представлена погода в Бобруйске за последнюю неделю. Архивные данные за месяц целиком и за предыдущие месяцы, начиная с января 2011 года, Вы можете получить, выбрав интересующий диапазон дат из раскрывающегося списка и нажав кнопку "Ввод!".


*Определитесь, кто Вы:
робот инопланетянин человек

Внимание! Время в таблицах - всемирное. Для получения местного времени необходимо прибавить поправку, которая в Бобруйске равна 3 ч.

Смотрите также архив погоды в соседних городах и на ближайших метеорологических станциях:

Погода в Кличеве (Могилевская область, Беларусь) (35 км)
Погода в Октябре (Гомельская область, Беларусь) (67 км)
Погода в Жлобине (Гомельская область, Беларусь) (69 км)
Погода в Березино (Минская область, Беларусь) (70 км)
Погода в Марьиной Горке (Минская область, Беларусь) (72 км)
Погода в Могилеве (Могилевская область, Беларусь) (104 км)
Погода в Слуцке (Минская область, Беларусь) (107 км)
Погода в Могилев городе (Могилевская область, Беларусь) (110 км)
Погода в Василевичах (Гомельская область, Беларусь) (117 км)
Погода в Борисове (Минская область, Беларусь) (125 км)

Пояснения к столбцам:

Ветер - указаны скорость ветра в м/с - средняя за 10 мин, порывы в срок и между сроками (в фигурных скобках) и направление, откуда дует ветер: С - северный, СВ - северо-восточный, В - восточный, ЮВ - юго-восточный, Ю - южный, ЮЗ - юго-западный, З - западный, СЗ - северо-западный.
Видимость - горизонтальная дальность видимости в метрах или километрах. При видимости от 1 до 10 км при отсутствии осадков обычно наблюдается дымка, при ухудшении видимости до 1 км и менее - туман. В сухую погоду видимость может ухудшаться дымом, пылью или мглою.
Явления - указаны атмосферные явления, наблюдавшиеся в срок или в последний час перед сроком; фигурными скобками обозначены явления, наблюдавшиеся между сроками (за 1-3 часа до срока); квадратными скобками обозначены град или гололедные отложения с указанием их диаметра в мм.
Облачность - указаны через наклонную черту общая и нижняя облачность в баллах и высота нижней границы облаков в метрах; квадратными скобками обозначены формы облаков: Ci - перистые, Cs - перисто-слоистые, Cc - перисто-кучевые, Ac - высококучевые, As - высокослоистые, Sc - слоисто-кучевые, Ns - слоисто-дождевые, Cu - кучевые, Cb - кучево-дождевые. Подробнее классификацию облаков см. в Атласе облаков (PDF).
T - Температура воздуха - температура, измеренная на высоте 2 м над землей.
Td - Температура точки росы - температура, при понижении до которой содержащийся в воздухе водяной пар достигнет насыщения.
f - Относительная влажность воздуха - влажноcть воздуха, измеренная на высоте 2 м над землей.
Te - Эффективная температура - температура, которую ощущает одетый по сезону человек в тени. Характеристика душности погоды. При расчете учитывается влияние влажности воздуха и скорости ветра на теплоощущения человека.
Tes - Эффективная температура на солнце - температура, которую ощущает человек, с поправкой на солнечный нагрев. Характеристика знойности погоды. Зависит от высоты солнца над горизонтом, облачности и скорости ветра. Ночью, в пасмурную погоду, а также при ветре 12 м/с и более поправка равна нулю.
P - Атмосферное давление - приведенное к уровню моря атмосферное давление.
Po - Атмосферное давление - измеренное на уровне метеостанции атмосферное давление.
Tmin - Минимальная температура - минимум температуры воздуха на высоте 2 м над землей.
Tmax - Максимальная температура - максимум температуры воздуха на высоте 2 м над землей.
R - Количество осадков - Количество выпавших осадков за период времени, мм. При наведении курсора мыши на число - период времени, за который выпало указанное количество осадков.
R24 - Количество осадков - Количество выпавших осадков за 24 часа, мм.
S - Снежный покров - Высота снежного покрова, см. При наведении курсора мыши на число - состояние снежного покрова и степень покрытия местности в баллах.